Regional Weather Roundup
Issued by NWS

Home | Current Version | Previous Version | Graphics & Text | Print | Product List | Glossary On
Versions: 1 2 3 4 5 6 7 8 9 10 11 12 13 14 15 16 17 18 19 20 21 22 23 24 25 26 27 28 29 30 31 32 33 34 35 36 37 38 39 40 41 42 43 44 45 46 47 48 49 50
000
ASUS45 KBOI 021310
RWRID

IDAHO REGIONAL WEATHER ROUNDUP
NATIONAL WEATHER SERVICE BOISE ID
700 AM MDT SUN AUG 02 2015

NOTE: "FAIR" INDICATES FEW OR NO CLOUDS BELOW 12000 FEET
WITH NO SIGNIFICANT WEATHER AND/OR OBSTRUCTIONS TO VISIBILITY

IDZ012-014-021400-
SOUTHWEST IDAHO


CITY           SKY/WX    TMP DP  RH WIND       PRES   REMARKS
BOISE          CLEAR     70  37  29 S6        29.90R
CALDWELL       CLEAR     59  46  63 CALM      29.90R
MOUNTAIN HOME  PTCLDY    60  38  43 NE2       29.91R
$$

IDZ016-017-021400-
SOUTHCENTRAL IDAHO


CITY           SKY/WX    TMP DP  RH WIND       PRES   REMARKS
BURLEY         CLEAR     53  46  77 CALM      30.00R
JEROME         CLEAR     65  35  33 NE9       29.99R
TWIN FALLS     CLEAR     71  30  21 S13       29.97R
$$

IDZ019>023-021400-
SOUTHEAST IDAHO


CITY           SKY/WX    TMP DP  RH WIND       PRES   REMARKS
IDAHO FALLS    MOCLDY    49  43  80 N7        30.08R
POCATELLO      CLEAR     59  38  45 E7        30.05R
REXBURG        MOCLDY    51  42  71 NE5       30.10R
$$

IDZ006-010-011-018-031-032-021400-
CENTRAL IDAHO MOUNTAINS


CITY           SKY/WX    TMP DP  RH WIND       PRES   REMARKS
MCCALL         MOCLDY    52  39  61 CALM      30.09R
HAILEY         PTCLDY    57  37  47 NW7       30.12S
STANLEY          N/A     39  30  70 CALM      30.26R
SALMON         PTCLDY    48  43  81 CALM      30.09R
CHALLIS        CLEAR     56  39  53 CALM      30.15R
$$

IDZ002-004-006-007-026-021400-
NORTHERN IDAHO


CITY           SKY/WX    TMP DP  RH WIND       PRES   REMARKS
LEWISTON       MOCLDY    68  37  32 E7        29.90R
LOWELL           N/A     56  48  74 CALM      30.00R
COEUR D`ALENE  PTCLDY    55  37  50 NE3       29.93R
MULLAN PASS    CLOUDY    67  14  13 NW3       30.17R
$$



USA.gov is the U.S. government's official web portal to all federal, state and local government web resources and services.